This is the latest recevied weather packets stored in our database for station/object KM4RT-13. If no packets are shown the sender has not sent any weather packets the latest 10 day(s).
| Time | Temp. | Humidity | Pressure | Rain* | Wind** | Luminosity | Snow |
|---|---|---|---|---|---|---|---|
| 1777914843 | 25° C | 48% | 1010.3 hPa | 0 mm | - | 588 W/m² | - |
| 1777914540 | 23.89° C | 51% | 1010.5 hPa | 0 mm | - | 629 W/m² | - |
| 1777914236 | 23.89° C | 51% | 1010.4 hPa | 0 mm | - | 797 W/m² | - |
| 1777913933 | 24.44° C | 52% | 1010.7 hPa | 0 mm | - | 750 W/m² | - |
| 1777913629 | 24.44° C | 52% | 1010.6 hPa | 0 mm | - | 786 W/m² | - |
| 1777913326 | 24.44° C | 53% | 1010.5 hPa | 0 mm | - | 805 W/m² | - |
| 1777913022 | 23.89° C | 52% | 1010.6 hPa | 0 mm | - | 786 W/m² | - |
| 1777912718 | 23.89° C | 51% | 1010.8 hPa | 0 mm | - | 809 W/m² | - |
| 1777912415 | 23.89° C | 52% | 1010.8 hPa | 0 mm | - | 786 W/m² | - |
| 1777912111 | 23.89° C | 53% | 1010.8 hPa | 0 mm | - | 808 W/m² | - |
| 1777911807 | 23.89° C | 52% | 1011.1 hPa | 0 mm | - | 754 W/m² | - |
| 1777911504 | 23.33° C | 54% | 1011.1 hPa | 0 mm | - | 786 W/m² | - |
| 1777911201 | 23.33° C | 55% | 1010.9 hPa | 0 mm | - | 747 W/m² | - |
| 1777910898 | 23.89° C | 54% | 1011 hPa | 0 mm | - | 441 W/m² | - |
| 1777910595 | 23.33° C | 54% | 1011 hPa | 0 mm | - | 445 W/m² | - |
| 1777910292 | 23.33° C | 54% | 1010.8 hPa | 0 mm | - | 595 W/m² | - |
| 1777909989 | 23.33° C | 54% | 1011.1 hPa | 0 mm | - | 575 W/m² | - |
| 1777909686 | 23.33° C | 56% | 1011.1 hPa | 0 mm | - | 570 W/m² | - |
| 1777909383 | 23.33° C | 55% | 1011.2 hPa | 0 mm | - | 679 W/m² | - |
| 1777909081 | 23.33° C | 57% | 1011 hPa | 0 mm | - | 683 W/m² | - |
| 1777908778 | 22.78° C | 55% | 1011.1 hPa | 0 mm | - | 655 W/m² | - |
| 1777908475 | 22.78° C | 56% | 1011.4 hPa | 0 mm | - | 630 W/m² | - |
| 1777908172 | 22.78° C | 57% | 1011.4 hPa | 0 mm | - | 649 W/m² | - |
| 1777907868 | 22.78° C | 57% | 1011.2 hPa | 0 mm | - | 620 W/m² | - |
| 1777907564 | 22.78° C | 59% | 1011.2 hPa | 0 mm | - | 637 W/m² | - |
* Rain latest hour (hover to see other rain measurements)
** Current wind speed in m/s (hover to see current wind gust speed)